When you browse on this site, cookies collect data to enhance your experience and personalize the content and advertising you see.
Visit our Privacy Policy to learn more. By continuing to use the site, you agree to this use of cookies and data.
  • In Latvia
  • List of Countries
  • For 7 days
  • Water Temperature
  • Weather Map
  • Weather Widgets
  • user-avatar
    Login

    Hourly Weather Maseru

    Today, 22 January, Wednesday

    Time Temperature Precipitation Wind Pressure Humidity
    00:00 +19°C° 0 mm 2 mps 634 mmHg 61%
    01:00 +18°C° 0 mm 2 mps 634 mmHg 63%
    02:00 +17°C° 0 mm 2 mps 634 mmHg 68%
    03:00 +17°C° 0 mm 2 mps 634 mmHg 72%
    04:00 +16°C° 0 mm 2 mps 633 mmHg 76%
    05:00 +16°C° 0 mm 1 mps 633 mmHg 80%
    06:00 +18°C° 0 mm 2 mps 634 mmHg 73%
    07:00 +20°C° 0 mm 3 mps 635 mmHg 65%
    08:00 +22°C° 0 mm 4 mps 635 mmHg 58%
    09:00 +25°C° 0 mm 4 mps 636 mmHg 48%
    10:00 +27°C° 0 mm 4 mps 636 mmHg 38%
    11:00 +29°C° 0 mm 5 mps 636 mmHg 28%
    12:00 +30°C° 0 mm 6 mps 636 mmHg 23%
    13:00 +33°C° 0 mm 7 mps 636 mmHg 18%
    14:00 +34°C° 0 mm 8 mps 635 mmHg 13%
    15:00 +34°C° 0 mm 8 mps 635 mmHg 13%
    16:00 +33°C° 0 mm 8 mps 634 mmHg 12%
    17:00 +33°C° 0 mm 8 mps 634 mmHg 12%
    18:00 +29°C° 0 mm 6 mps 633 mmHg 15%
    19:00 +27°C° 0 mm 5 mps 633 mmHg 17%
    20:00 +24°C° 0 mm 3 mps 633 mmHg 20%
    21:00 +23°C° 0 mm 2 mps 632 mmHg 24%
    22:00 +21°C° 0 mm 2 mps 632 mmHg 29%
    23:00 +19°C° 0 mm 2 mps 632 mmHg 33%

    Tomorrow, 23 January, Thursday

    Time Temperature Precipitation Wind Pressure Humidity
    00:00 +19°C° 0 mm 1 mps 632 mmHg 39%
    01:00 +18°C° 0 mm 1 mps 632 mmHg 44%
    02:00 +18°C° 0 mm 1 mps 632 mmHg 50%
    03:00 +16°C° 0 mm 1 mps 632 mmHg 53%
    04:00 +16°C° 0 mm 1 mps 632 mmHg 56%
    05:00 +15°C° 0 mm 1 mps 632 mmHg 59%
    06:00 +18°C° 0 mm 2 mps 633 mmHg 52%
    07:00 +20°C° 0 mm 2 mps 634 mmHg 45%
    08:00 +24°C° 0 mm 3 mps 635 mmHg 38%
    09:00 +26°C° 0 mm 3 mps 636 mmHg 33%
    10:00 +28°C° 0 mm 3 mps 636 mmHg 27%
    11:00 +30°C° 0 mm 3 mps 636 mmHg 22%
    12:00 +30°C° 0 mm 4 mps 636 mmHg 22%
    13:00 +30°C° 0 mm 5 mps 635 mmHg 23%
    14:00 +30°C° 0 mm 6 mps 635 mmHg 24%
    15:00 +30°C° 0.1 mm 5 mps 635 mmHg 25%
    16:00 +29°C° 0.1 mm 4 mps 635 mmHg 25%
    17:00 +29°C° 0.1 mm 2 mps 635 mmHg 26%
    18:00 +27°C° 0 mm 3 mps 635 mmHg 32%
    19:00 +25°C° 0 mm 3 mps 635 mmHg 37%
    20:00 +22°C° 0 mm 4 mps 635 mmHg 42%
    21:00 +21°C° 0.1 mm 4 mps 635 mmHg 50%
    22:00 +20°C° 0.1 mm 4 mps 635 mmHg 58%
    23:00 +19°C° 0.1 mm 4 mps 636 mmHg 66%

    Day after tomorrow, 24 January, Friday

    Time Temperature Precipitation Wind Pressure Humidity
    00:00 +19°C° 0 mm 4 mps 635 mmHg 69%
    01:00 +18°C° 0 mm 4 mps 635 mmHg 72%
    02:00 +18°C° 0 mm 3 mps 635 mmHg 75%
    03:00 +17°C° 0 mm 3 mps 635 mmHg 77%
    04:00 +17°C° 0 mm 3 mps 635 mmHg 79%
    05:00 +16°C° 0 mm 3 mps 635 mmHg 81%
    06:00 +17°C° 0 mm 5 mps 636 mmHg 75%
    07:00 +20°C° 0 mm 6 mps 636 mmHg 69%
    08:00 +21°C° 0 mm 8 mps 637 mmHg 62%
    09:00 +23°C° 0.2 mm 8 mps 637 mmHg 55%
    10:00 +26°C° 0.2 mm 7 mps 638 mmHg 48%
    11:00 +28°C° 0.2 mm 7 mps 638 mmHg 42%
    12:00 +28°C° 0.4 mm 6 mps 638 mmHg 41%
    13:00 +28°C° 0.4 mm 6 mps 638 mmHg 41%
    14:00 +29°C° 0.4 mm 6 mps 637 mmHg 41%
    15:00 +26°C° 1.4 mm 5 mps 637 mmHg 51%
    16:00 +23°C° 1.4 mm 5 mps 636 mmHg 62%
    17:00 +21°C° 1.4 mm 5 mps 636 mmHg 72%
    18:00 +20°C° 2 mm 4 mps 636 mmHg 76%
    19:00 +19°C° 2 mm 2 mps 637 mmHg 80%
    20:00 +19°C° 2 mm 1 mps 637 mmHg 84%
    21:00 +18°C° 0.7 mm 2 mps 637 mmHg 84%
    22:00 +17°C° 0.7 mm 2 mps 637 mmHg 85%
    23:00 +17°C° 0.7 mm 3 mps 636 mmHg 85%

    25 January, Saturday

    Time Temperature Precipitation Wind Pressure Humidity
    00:00 +17°C° 0.1 mm 2 mps 636 mmHg 85%
    01:00 +17°C° 0.1 mm 2 mps 636 mmHg 86%
    02:00 +17°C° 0.1 mm 2 mps 635 mmHg 86%
    03:00 +17°C° 0 mm 2 mps 635 mmHg 87%
    04:00 +16°C° 0 mm 1 mps 635 mmHg 87%
    05:00 +16°C° 0 mm 1 mps 635 mmHg 88%
    06:00 +17°C° 0 mm 2 mps 635 mmHg 84%
    07:00 +18°C° 0 mm 2 mps 635 mmHg 81%
    08:00 +18°C° 0 mm 2 mps 636 mmHg 77%
    09:00 +20°C° 0.1 mm 2 mps 636 mmHg 67%
    10:00 +22°C° 0.1 mm 3 mps 636 mmHg 56%
    11:00 +25°C° 0.1 mm 3 mps 636 mmHg 46%
    12:00 +27°C° 0 mm 3 mps 636 mmHg 40%
    13:00 +28°C° 0 mm 4 mps 636 mmHg 35%
    14:00 +30°C° 0 mm 4 mps 636 mmHg 29%
    15:00 +29°C° 0 mm 5 mps 636 mmHg 29%
    16:00 +29°C° 0 mm 5 mps 636 mmHg 28%
    17:00 +29°C° 0 mm 5 mps 636 mmHg 27%
    18:00 +26°C° 0.1 mm 4 mps 635 mmHg 41%
    19:00 +22°C° 0.1 mm 4 mps 635 mmHg 55%
    20:00 +20°C° 0.1 mm 3 mps 635 mmHg 68%
    21:00 +20°C° 0 mm 3 mps 635 mmHg 67%
    22:00 +20°C° 0 mm 3 mps 635 mmHg 66%
    23:00 +20°C° 0 mm 3 mps 635 mmHg 65%

    26 January, Sunday

    Time Temperature Precipitation Wind Pressure Humidity
    00:00 +19°C° 0 mm 3 mps 635 mmHg 67%
    01:00 +19°C° 0 mm 3 mps 634 mmHg 69%
    02:00 +18°C° 0 mm 3 mps 634 mmHg 71%
    03:00 +18°C° 0 mm 3 mps 634 mmHg 73%
    04:00 +17°C° 0 mm 2 mps 634 mmHg 76%
    05:00 +17°C° 0 mm 2 mps 634 mmHg 78%
    06:00 +19°C° 0 mm 3 mps 634 mmHg 73%
    07:00 +20°C° 0 mm 3 mps 635 mmHg 69%
    08:00 +22°C° 0 mm 4 mps 636 mmHg 64%
    09:00 +25°C° 0.1 mm 5 mps 636 mmHg 55%
    10:00 +27°C° 0.1 mm 6 mps 637 mmHg 45%
    11:00 +30°C° 0.1 mm 7 mps 637 mmHg 36%
    12:00 +29°C° 0 mm 7 mps 636 mmHg 37%
    13:00 +29°C° 0 mm 6 mps 636 mmHg 38%
    14:00 +29°C° 0 mm 6 mps 635 mmHg 39%
    15:00 +28°C° 0.2 mm 7 mps 635 mmHg 41%
    16:00 +27°C° 0.2 mm 7 mps 634 mmHg 43%
    17:00 +27°C° 0.2 mm 8 mps 634 mmHg 45%
    18:00 +24°C° 2.4 mm 6 mps 634 mmHg 57%
    19:00 +21°C° 2.4 mm 5 mps 634 mmHg 69%
    20:00 +19°C° 2.4 mm 4 mps 633 mmHg 82%
    21:00 +18°C° 0.1 mm 4 mps 633 mmHg 82%
    22:00 +18°C° 0.1 mm 3 mps 633 mmHg 83%
    23:00 +18°C° 0.1 mm 3 mps 633 mmHg 84%

    27 January, Monday

    Time Temperature Precipitation Wind Pressure Humidity
    00:00 +18°C° 0 mm 3 mps 633 mmHg 84%
    01:00 +17°C° 0 mm 2 mps 633 mmHg 84%
    02:00 +18°C° 0 mm 1 mps 632 mmHg 85%
    03:00 +18°C° 0 mm 1 mps 632 mmHg 85%
    04:00 +16°C° 0 mm 1 mps 632 mmHg 84%
    05:00 +16°C° 0 mm 2 mps 632 mmHg 84%
    06:00 +17°C° 0 mm 2 mps 633 mmHg 78%
    07:00 +18°C° 0 mm 3 mps 634 mmHg 72%
    08:00 +20°C° 0 mm 3 mps 635 mmHg 66%
    09:00 +21°C° 0.1 mm 4 mps 635 mmHg 57%
    10:00 +22°C° 0.1 mm 5 mps 635 mmHg 49%
    11:00 +23°C° 0.1 mm 5 mps 635 mmHg 41%
    12:00 +24°C° 0 mm 6 mps 635 mmHg 35%
    13:00 +26°C° 0 mm 7 mps 635 mmHg 30%
    14:00 +27°C° 0 mm 8 mps 635 mmHg 25%
    15:00 +26°C° 0 mm 8 mps 635 mmHg 21%
    16:00 +26°C° 0 mm 8 mps 635 mmHg 17%
    17:00 +24°C° 0 mm 8 mps 635 mmHg 14%
    18:00 +21°C° 0 mm 6 mps 635 mmHg 17%
    19:00 +19°C° 0 mm 4 mps 635 mmHg 21%
    20:00 +16°C° 0 mm 3 mps 635 mmHg 25%
    21:00 +16°C° 0 mm 2 mps 635 mmHg 27%
    22:00 +15°C° 0 mm 2 mps 635 mmHg 29%
    23:00 +14°C° 0 mm 1 mps 635 mmHg 31%
    Show more